Location: Voyageurs National Park
(48.5020°N, 92.9292°W)
Time: 02:32:38
(UTC-05:00)

Amateur Radio Satellites - All Passes

Search period start: 01 November 2014 02:02
Search period end: 02 November 2014 01:02
Location: Voyageurs National Park, 48.5020°N, 92.9292°W

Satellite Date Start Highest point End Downlink Frequencies (MHz)
Time Altitude Azimuth
AO-27 01 Nov 02:10:38 02:13:24 14° 87° (E) 02:16:08 436.795 MHz FM
Oscar 16 01 Nov 02:18:39 02:23:26 38° 97° (E) 02:28:11 437.025 USB, Beacon 2401.1428
Gurwin Techsat 1B 01 Nov 02:29:56 02:31:48 12° 85° (E) 02:33:39 435.225 FM
Sapphire 01 Nov 02:36:25 02:41:29 43° 115° (ESE) 02:46:37 437.095 MHz 1200 baud AX-25 AFSK
AO-Echo 01 Nov 02:48:58 02:53:59 40° 97° (E) 02:58:56 ?
Uribyol 2 01 Nov 02:52:42 02:57:26 34° 96° (E) 03:02:06 436.500 FM
PCSat 01 Nov 02:57:39 03:03:01 67° 120° (ESE) 03:08:25 145.825 MHz
ITAMSAT 1 01 Nov 03:00:45 03:05:36 37° 97° (E) 03:10:24 435.822 SSB
JAS-1B 01 Nov 03:03:57 03:10:56 79° 105° (ESE) 03:19:21 435.800 - 435.900 CW/SSB
Oscar 19 01 Nov 03:10:33 03:15:42 81° 286° (WNW) 03:20:49 437.125 CW, 437.150 USB
RS-15 01 Nov 03:33:29 03:43:35 39° 19° (NNE) 03:53:58 29.354 - 29.394 USB, Beacon 29.352 USB
AO-27 01 Nov 03:48:22 03:53:38 88° 287° (WNW) 03:58:52 436.795 MHz FM
Oscar 16 01 Nov 03:58:10 04:02:44 34° 296° (WNW) 04:07:18 437.025 USB, Beacon 2401.1428
Gurwin Techsat 1B 01 Nov 04:07:18 04:12:40 78° 104° (ESE) 04:17:58 435.225 FM
TMSAT-1 01 Nov 04:13:15 04:18:34 67° 102° (ESE) 04:23:50 436.925 FM
Sapphire 01 Nov 04:19:56 04:25:00 39° 316° (NW) 04:30:06 437.095 MHz 1200 baud AX-25 AFSK
OPAL 01 Nov 04:22:21 04:26:41 29° 60° (ENE) 04:30:59 ?
AO-Echo 01 Nov 04:27:53 04:32:39 34° 296° (WNW) 04:37:23 ?
Uribyol 2 01 Nov 04:32:09 04:36:57 38° 295° (WNW) 04:41:43 436.500 FM
ITAMSAT 1 01 Nov 04:40:20 04:45:04 35° 296° (WNW) 04:49:45 435.822 SSB
Uosat F 01 Nov 04:41:44 04:45:23 20° 91° (E) 04:49:01 435.120 FM
PCSat 01 Nov 04:42:13 04:46:54 29° 321° (NW) 04:51:36 145.825 MHz
JAS-2 01 Nov 04:46:58 04:50:33 14° 79° (E) 04:54:05 435.800 - 435.900 CW/SSB, 435.910 FM
AO-7 01 Nov 04:49:43 04:57:19 37° 96° (E) 05:04:52 29.400 - 29.500 MHz
Oscar 19 01 Nov 04:51:33 04:54:16 15° 306° (NW) 04:56:58 437.125 CW, 437.150 USB
JAS-1B 01 Nov 04:55:36 05:01:06 27° 302° (WNW) 05:07:20 435.800 - 435.900 CW/SSB
AO-27 01 Nov 05:29:18 05:32:25 16° 305° (NW) 05:35:32 436.795 MHz FM
RS-15 01 Nov 05:46:43 05:57:53 78° 49° (NE) 06:09:30 29.354 - 29.394 USB, Beacon 29.352 USB
Gurwin Techsat 1B 01 Nov 05:48:22 05:52:03 19° 303° (WNW) 05:55:43 435.225 FM
TMSAT-1 01 Nov 05:54:03 05:58:01 22° 301° (WNW) 06:01:59 436.925 FM
Saudisat 1A 01 Nov 05:57:40 06:01:39 35° 119° (ESE) 06:05:40 436.775 MHz
OPAL 01 Nov 06:00:30 06:05:23 46° 258° (WSW) 06:10:15 ?
Sapphire 01 Nov 06:07:08 06:10:00 14° 340° (NNW) 06:12:52 437.095 MHz 1200 baud AX-25 AFSK
STRAND 1 01 Nov 06:19:19 06:24:03 39° 66° (ENE) 06:28:50 ?
Uosat F 01 Nov 06:19:36 06:24:37 63° 289° (WNW) 06:29:35 435.120 FM
JAS-2 01 Nov 06:29:19 06:37:08 61° 100° (E) 06:44:43 435.800 - 435.900 CW/SSB, 435.910 FM
PCSat 01 Nov 06:30:05 06:32:12 12° 346° (NNW) 06:34:20 145.825 MHz
MaSat-1 01 Nov 06:30:45 06:32:08 13° 45° (NE) 06:33:27 437.345 MHz
AO-7 01 Nov 06:42:21 06:50:30 61° 297° (WNW) 06:58:39 29.400 - 29.500 MHz
Hamsat 01 Nov 07:00:46 07:04:59 67° 102° (ESE) 07:09:12 145.90 MHz
SO-67 01 Nov 07:19:57 07:21:44 13° 90° (E) 07:23:31 435.3500 MHz FM
Saudisat 1A 01 Nov 07:37:05 07:41:12 38° 319° (NW) 07:45:21 436.775 MHz
Sapphire 01 Nov 07:54:33 07:55:57 11° 7° (N) 07:57:22 437.095 MHz 1200 baud AX-25 AFSK
STRAND 1 01 Nov 07:58:42 08:03:18 33° 264° (W) 08:07:57 ?
RS-15 01 Nov 07:59:41 08:09:23 37° 252° (WSW) 08:19:28 29.354 - 29.394 USB, Beacon 29.352 USB
Uosat F 01 Nov 08:00:53 08:02:26 11° 309° (NW) 08:03:58 435.120 FM
MaSat-1 01 Nov 08:05:24 08:07:37 27° 247° (WSW) 08:09:43 437.345 MHz
JAS-2 01 Nov 08:14:45 08:21:47 38° 300° (WNW) 08:28:43 435.800 - 435.900 CW/SSB, 435.910 FM
PCSat 01 Nov 08:16:08 08:18:13 12° 13° (NNE) 08:20:17 145.825 MHz
HO-68 01 Nov 08:21:44 08:22:42 10° 81° (E) 08:23:41 435.675 MHz FM
AO-7 01 Nov 08:36:24 08:41:43 19° 320° (NW) 08:47:03 29.400 - 29.500 MHz
Hamsat 01 Nov 08:37:58 08:40:27 16° 300° (WNW) 08:42:57 145.90 MHz
SO-67 01 Nov 08:51:39 08:54:58 45° 288° (WNW) 08:58:16 435.3500 MHz FM
Saudisat 1A 01 Nov 09:19:50 09:21:58 13° 341° (NNW) 09:24:07 436.775 MHz
Sapphire 01 Nov 09:37:25 09:41:35 22° 32° (NNE) 09:45:43 437.095 MHz 1200 baud AX-25 AFSK
Oscar 11 01 Nov 09:46:45 09:48:49 13° 88° (E) 09:50:51 145.825 FM, Beacon 2401.500 USB
PCSat 01 Nov 09:58:52 10:03:33 28° 38° (NE) 10:08:12 145.825 MHz
KITSAT 1 01 Nov 10:01:18 10:07:10 23° 103° (ESE) 10:13:03 435.175 FM
JAS-2 01 Nov 10:02:50 10:04:42 11° 322° (NW) 10:06:34 435.800 - 435.900 CW/SSB, 435.910 FM
HO-68 01 Nov 10:04:57 10:12:02 57° 102° (ESE) 10:19:04 435.675 MHz FM
ISS 01 Nov 10:26:48 10:29:37 26° 142° (SE) 10:32:26 145.800 FM
UKube-1 01 Nov 10:47:03 10:51:19 50° 100° (E) 10:55:33 145.840 MHz, 145.915 MHz
ZACube-1 01 Nov 10:58:10 11:01:53 29° 95° (E) 11:05:31 437.345 MHz
Saudisat 1A 01 Nov 11:02:56 11:03:29 10° 6° (N) 11:04:03 436.775 MHz
Sapphire 01 Nov 11:20:24 11:25:52 80° 55° (NE) 11:31:18 437.095 MHz 1200 baud AX-25 AFSK
Oscar 11 01 Nov 11:21:12 11:25:31 73° 286° (WNW) 11:29:48 145.825 FM, Beacon 2401.500 USB
SO-50 01 Nov 11:39:27 11:43:52 57° 123° (ESE) 11:48:27 436.795 FM
FUNcube-1 01 Nov 11:40:29 11:44:43 80° 103° (ESE) 11:48:52 145.950 - 145.970 MHz USB
PCSat 01 Nov 11:42:02 11:47:27 69° 240° (WSW) 11:52:49 145.825 MHz
HO-68 01 Nov 11:53:04 11:59:29 37° 302° (WNW) 12:05:53 435.675 MHz FM
KITSAT 1 01 Nov 11:53:25 12:01:31 88° 125° (SE) 12:09:39 435.175 FM
ISS 01 Nov 12:02:45 12:06:04 76° 341° (NNW) 12:09:25 145.800 FM
Oscar 16 01 Nov 12:03:12 12:05:52 14° 54° (NE) 12:08:32 437.025 USB, Beacon 2401.1428
JAS-1B 01 Nov 12:07:10 12:10:43 17° 51° (NE) 12:14:22 435.800 - 435.900 CW/SSB
UOSAT-12 01 Nov 12:19:25 12:22:28 18° 111° (ESE) 12:25:34 437.025 FM, 437.400 FM
UKube-1 01 Nov 12:23:56 12:27:11 21° 299° (WNW) 12:30:26 145.840 MHz, 145.915 MHz
AO-Echo 01 Nov 12:30:13 12:32:35 13° 53° (NE) 12:34:59 ?
ZACube-1 01 Nov 12:34:35 12:38:16 30° 294° (WNW) 12:41:53 437.345 MHz
Uribyol 2 01 Nov 12:38:14 12:40:45 14° 53° (NE) 12:43:17 436.500 FM
Saudisat 1A 01 Nov 12:41:23 12:44:45 21° 30° (NNE) 12:48:05 436.775 MHz
ITAMSAT 1 01 Nov 12:46:04 12:48:55 15° 54° (NE) 12:51:47 435.822 SSB
Oscar 19 01 Nov 12:52:47 12:57:19 33° 64° (ENE) 13:01:52 437.125 CW, 437.150 USB
Oscar 11 01 Nov 13:00:18 13:00:54 10° 305° (NW) 13:01:30 145.825 FM, Beacon 2401.500 USB
Sapphire 01 Nov 13:04:59 13:08:39 19° 254° (WSW) 13:12:19 437.095 MHz 1200 baud AX-25 AFSK
FUNcube-1 01 Nov 13:18:32 13:20:30 13° 302° (WNW) 13:22:26 145.950 - 145.970 MHz USB
SO-50 01 Nov 13:20:43 13:24:44 29° 324° (NW) 13:28:52 436.795 FM
PCSat 01 Nov 13:28:16 13:29:51 11° 259° (WSW) 13:31:25 145.825 MHz
AO-27 01 Nov 13:31:44 13:36:21 33° 63° (ENE) 13:40:59 436.795 MHz FM
Oscar 16 01 Nov 13:39:17 13:44:26 80° 73° (ENE) 13:49:36 437.025 USB, Beacon 2401.1428
ISS 01 Nov 13:39:47 13:43:01 46° 1° (N) 13:46:16 145.800 FM
HO-68 01 Nov 13:44:53 13:45:11 10° 325° (NW) 13:45:30 435.675 MHz FM
KITSAT 1 01 Nov 13:50:39 13:57:54 35° 329° (NNW) 14:05:11 435.175 FM
Gurwin Techsat 1B 01 Nov 13:53:33 13:58:01 29° 62° (ENE) 14:02:31 435.225 FM
JAS-1B 01 Nov 13:54:53 14:00:35 88° 254° (WSW) 14:06:28 435.800 - 435.900 CW/SSB
UOSAT-12 01 Nov 13:57:24 14:02:04 76° 310° (NW) 14:06:50 437.025 FM, 437.400 FM
TMSAT-1 01 Nov 13:59:30 14:03:44 25° 60° (ENE) 14:07:58 436.925 FM
AO-7 01 Nov 14:03:41 14:09:22 21° 42° (NE) 14:15:03 29.400 - 29.500 MHz
AO-Echo 01 Nov 14:05:24 14:10:25 72° 73° (ENE) 14:15:39 ?
Uribyol 2 01 Nov 14:14:09 14:19:22 74° 72° (ENE) 14:24:36 436.500 FM
Saudisat 1A 01 Nov 14:20:28 14:24:56 88° 51° (NE) 14:29:22 436.775 MHz
ITAMSAT 1 01 Nov 14:22:24 14:27:37 81° 73° (ENE) 14:32:53 435.822 SSB
Oscar 19 01 Nov 14:31:48 14:36:36 39° 263° (W) 14:41:24 437.125 CW, 437.150 USB
SO-50 01 Nov 15:04:43 15:06:49 13° 348° (NNW) 15:08:57 436.795 FM
JAS-2 01 Nov 15:06:38 15:08:22 11° 38° (NE) 15:10:09 435.800 - 435.900 CW/SSB, 435.910 FM
AO-27 01 Nov 15:10:51 15:15:46 41° 262° (W) 15:20:43 436.795 MHz FM
ISS 01 Nov 15:16:35 15:19:56 85° 21° (NNE) 15:23:17 145.800 FM
Oscar 16 01 Nov 15:21:23 15:24:25 16° 272° (W) 15:27:28 437.025 USB, Beacon 2401.1428
Gurwin Techsat 1B 01 Nov 15:32:38 15:37:46 49° 261° (W) 15:42:56 435.225 FM
TMSAT-1 01 Nov 15:38:05 15:43:18 57° 259° (W) 15:48:33 436.925 FM
UOSAT-12 01 Nov 15:39:28 15:42:59 20° 332° (NNW) 15:46:33 437.025 FM, 437.400 FM
AO-Echo 01 Nov 15:46:28 15:49:47 17° 272° (W) 15:53:11 ?
JAS-1B 01 Nov 15:49:53 15:52:22 13° 275° (W) 15:54:54 435.800 - 435.900 CW/SSB
KITSAT 1 01 Nov 15:49:57 15:56:02 22° 358° (N) 16:02:06 435.175 FM
AO-7 01 Nov 15:52:35 16:00:45 68° 65° (ENE) 16:08:59 29.400 - 29.500 MHz
Uribyol 2 01 Nov 15:55:58 15:59:24 18° 271° (W) 16:02:52 436.500 FM
Uosat F 01 Nov 15:58:18 16:02:59 41° 66° (ENE) 16:07:42 435.120 FM
Saudisat 1A 01 Nov 16:01:39 16:03:51 14° 250° (WSW) 16:06:03 436.775 MHz
ITAMSAT 1 01 Nov 16:04:39 16:07:46 16° 272° (W) 16:10:54 435.822 SSB
Hamsat 01 Nov 16:26:19 16:26:28 10° 56° (NE) 16:26:37 145.90 MHz
JAS-2 01 Nov 16:45:16 16:51:21 40° 61° (ENE) 16:58:06 435.800 - 435.900 CW/SSB, 435.910 FM
SO-50 01 Nov 16:47:11 16:49:26 13° 13° (NNE) 16:51:43 436.795 FM
ISS 01 Nov 16:53:41 16:56:20 22° 219° (SW) 16:58:59 145.800 FM
UOSAT-12 01 Nov 17:23:22 17:24:57 11° 356° (N) 17:26:32 437.025 FM, 437.400 FM
Uosat F 01 Nov 17:37:27 17:41:52 30° 265° (W) 17:46:20 435.120 FM
AO-7 01 Nov 17:46:57 17:54:08 32° 266° (W) 18:01:24 29.400 - 29.500 MHz
KITSAT 1 01 Nov 17:47:12 17:54:17 32° 28° (NNE) 18:01:21 435.175 FM
Hamsat 01 Nov 17:57:30 18:01:40 76° 75° (ENE) 18:05:51 145.90 MHz
OPAL 01 Nov 18:06:31 18:10:58 32° 98° (E) 18:15:23 ?
SO-50 01 Nov 18:27:12 18:31:29 31° 37° (NE) 18:35:49 436.795 FM
JAS-2 01 Nov 18:30:01 18:36:15 48° 264° (W) 18:43:18 435.800 - 435.900 CW/SSB, 435.910 FM
HO-68 01 Nov 18:53:34 18:57:46 17° 44° (NE) 19:01:57 435.675 MHz FM
UOSAT-12 01 Nov 19:04:08 19:07:04 16° 21° (NNE) 19:09:59 437.025 FM, 437.400 FM
SO-67 01 Nov 19:27:15 19:30:41 81° 258° (WSW) 19:34:09 435.3500 MHz FM
Hamsat 01 Nov 19:36:35 19:38:09 12° 273° (W) 19:39:43 145.90 MHz
KITSAT 1 01 Nov 19:42:46 19:50:54 82° 53° (NE) 19:59:00 435.175 FM
OPAL 01 Nov 19:45:21 19:49:55 38° 297° (WNW) 19:54:27 ?
STRAND 1 01 Nov 20:04:41 20:09:49 64° 102° (ESE) 20:14:55 ?
SO-50 01 Nov 20:07:35 20:12:21 57° 237° (WSW) 20:17:08 436.795 FM
UKube-1 01 Nov 20:13:56 20:14:48 11° 54° (NE) 20:15:40 145.840 MHz, 145.915 MHz
RS-15 01 Nov 20:16:56 20:25:53 31° 105° (ESE) 20:34:46 29.354 - 29.394 USB, Beacon 29.352 USB
HO-68 01 Nov 20:37:06 20:44:08 62° 66° (ENE) 20:51:13 435.675 MHz FM
UOSAT-12 01 Nov 20:43:44 20:48:20 48° 44° (NE) 20:52:52 437.025 FM, 437.400 FM
Oscar 11 01 Nov 20:45:16 20:48:12 18° 61° (ENE) 20:51:07 145.825 FM, Beacon 2401.500 USB
FUNcube-1 01 Nov 21:06:19 21:08:42 14° 59° (ENE) 21:11:04 145.950 - 145.970 MHz USB
KITSAT 1 01 Nov 21:39:03 21:45:29 27° 254° (WSW) 21:51:54 435.175 FM
MaSat-1 01 Nov 21:43:29 21:46:16 20° 111° (ESE) 21:48:51 437.345 MHz
STRAND 1 01 Nov 21:44:42 21:48:34 22° 301° (WNW) 21:52:26 ?
UKube-1 01 Nov 21:45:51 21:50:11 72° 73° (ENE) 21:54:34 145.840 MHz, 145.915 MHz
ZACube-1 01 Nov 21:57:52 22:02:04 40° 69° (ENE) 22:06:12 437.345 MHz
Oscar 11 01 Nov 22:19:44 22:23:59 58° 259° (W) 22:28:15 145.825 FM, Beacon 2401.500 USB
UOSAT-12 01 Nov 22:24:13 22:28:19 30° 243° (WSW) 22:32:22 437.025 FM, 437.400 FM
RS-15 01 Nov 22:25:58 22:36:58 85° 309° (NW) 22:48:02 29.354 - 29.394 USB, Beacon 29.352 USB
HO-68 01 Nov 22:26:03 22:32:16 31° 266° (W) 22:38:33 435.675 MHz FM
FUNcube-1 01 Nov 22:40:01 22:44:32 81° 257° (WSW) 22:48:57 145.950 - 145.970 MHz USB
MaSat-1 01 Nov 23:18:02 23:21:28 37° 305° (NW) 23:24:35 437.345 MHz
UKube-1 01 Nov 23:24:39 23:26:53 14° 271° (W) 23:29:08 145.840 MHz, 145.915 MHz
ZACube-1 01 Nov 23:34:55 23:38:36 25° 266° (W) 23:42:15 437.345 MHz
RS-15 02 Nov 00:40:51 00:50:57 40° 338° (NNW) 01:01:14 29.354 - 29.394 USB, Beacon 29.352 USB
JAS-1B 02 Nov 01:33:11 01:38:52 24° 91° (E) 01:45:14 435.800 - 435.900 CW/SSB
Oscar 16 02 Nov 01:47:54 01:51:45 21° 91° (E) 01:55:35 437.025 USB, Beacon 2401.1428
